Regional Weather Roundup
Issued by NWS Sterling, VA

Home | Current Version | Previous Version | Text Only | Print | Product List | Glossary On
Versions: 1 2 3 4 5 6 7 8 9 10 11 12 13 14 15 16 17 18 19 20 21 22 23 24 25 26 27 28 29 30 31 32 33 34 35 36 37 38 39 40 41 42 43 44 45 46 47 48 49 50
000
ASUS41 KLWX 040310
RWRLWX

REGIONAL WEATHER ROUNDUP
NATIONAL WEATHER SERVICE BALTIMORE MD/WASHINGTON DC
1100 PM EDT THU SEP 03 2015

Note: "FAIR" indicates few or no clouds below 12,000 feet
with no significant weather and/or obstructions to visibility.
 TC=TEMPERATURE CELSIUS

 * =Non NWS site. Station does not report precipitation (e.g. rain,
    snow, etc.), thunder, or fog.

DCZ001-MDZ009-015-VAZ040>042-051-053>054-040400-
WASHINGTON METRO

CITY           SKY/WX    TMP DP  RH WIND       PRES   REMARKS
WASHINGTON NAT CLOUDY    80  74  81 CALM      29.90S
DULLES         CLOUDY    78  67  68 CALM      29.91F
ANDREWS AFB    CLOUDY    74  72  91 CALM      29.89F
FT BELVOIR     MOCLDY    74  69  86 CALM      29.89F
QUANTICO       MOCLDY    77  72  84 NW7       29.90F
COLLEGE PARK*  CLOUDY    77  70  78 CALM      29.89S
LEESBURG*      CLOUDY    77  72  83 SW3       29.93S
MANASSAS*      MOCLDY    75  73  94 SW3       29.91S
GAITHERSBURG*  MOCLDY    73  66  78 CALM      29.95S

$$

MDZ006>007-011-014-040400-
BALTIMORE METRO

CITY           SKY/WX    TMP DP  RH WIND       PRES   REMARKS
BWI AIRPORT    MOCLDY    77  69  76 CALM      29.89F
MD SCIENCE CTR   N/A     83  70  64 MISG      29.89S
ANNAPOLIS      MOCLDY    79  74  84 CALM      29.88F
FORT MEADE*    MOCLDY    70  68  94 CALM      29.92S

$$

MDZ012-015-019>023-040400-
MARYLAND EASTERN SHORE

CITY           SKY/WX    TMP DP  RH WIND       PRES   REMARKS
OCEAN CITY     CLEAR     78  70  76 W6        29.87F
SALISBURY      CLEAR     75  71  87 CALM      29.88S
BAY BRIDGE AP*   N/A     81  72  74 W5        29.88F

$$

MDZ017>025-040400-
SOUTHERN MARYLAND

CITY           SKY/WX    TMP DP  RH WIND       PRES   REMARKS
PATUXENT RIVER MOCLDY    74  70  87 W3        29.89S
ST INIGOES     PTCLDY    74  72  93 CALM      29.88F FOG
LEONARDTOWN*   NOT AVBL

$$

MDZ003>005-040400-
NORTH CENTRAL MARYLAND

CITY           SKY/WX    TMP DP  RH WIND       PRES   REMARKS
FREDERICK*     NOT AVBL
HAGERSTOWN APT PTCLDY    77  69  76 SE6       29.93S
WESTMINSTER*   MOCLDY    77  70  78 CALM      29.93S

$$

MDZ501>502-040400-
WESTERN MARYLAND

CITY           SKY/WX    TMP DP  RH WIND       PRES   REMARKS
OAKLAND*       MOCLDY    64  64 100 SW3       30.08S FOG
CUMBERLAND*    MOCLDY    72  72 100 CALM      29.99S

$$

VAZ025>031-040400-
SHENANDOAH VALLEY

CITY           SKY/WX    TMP DP  RH WIND       PRES   REMARKS
WINCHESTER*    PTCLDY    72  68  88 SW7       29.94F
FRONT ROYAL*   FAIR      70  68  94 S7        29.94F
LURAY*         FAIR      70  70 100 CALM      29.97F
NEW MARKET*    FAIR      70  68  94 CALM      29.96F
STAUNTON*      LGT RAIN  73  69  88 NW5       30.01S
WAYNESBORO*    FAIR      72  66  83 SW3       30.00F

$$

WVZ021-048>050-054>055-040400-
EASTERN WEST VIRGINIA PANHANDLE

CITY           SKY/WX    TMP DP  RH WIND       PRES   REMARKS
MARTINSBURG    PTCLDY    73  66  78 CALM      29.93S
PETERSBURG*    PTCLDY    69  68  98 CALM      29.99S FOG

$$

VAZ036>039-050-040400-
CENTRAL FOOTHILLS

CITY           SKY/WX    TMP DP  RH WIND       PRES   REMARKS
CHARLOTTESVILL MOCLDY    76  69  79 N6        29.95R
CULPEPER*      CLOUDY    72  70  93 CALM      29.92F
ORANGE*        MOCLDY    79  68  69 CALM      29.94F
GORDONSVILLE*  FAIR      72  70  92 CALM      29.94R
WARRENTON*     FAIR      77  72  83 CALM      29.91F

$$

VAZ055>057-040400-
NORTH AND CENTRAL PIEDMONT

CITY           SKY/WX    TMP DP  RH WIND       PRES   REMARKS
FREDERICKSBRG* PTCLDY    75  70  84 CALM      29.90S
STAFFORD*      PTCLDY    73  70  90 CALM      29.94F

$$

NCZ024-NYZ072-PAZ021-071-VAZ022-071-040400-
OTHER REGIONAL OBSERVATIONS

CITY           SKY/WX    TMP DP  RH WIND       PRES   REMARKS
NEW YORK CITY  MOCLDY    82  66  58 CALM      29.92R
PHILADELPHIA   MOCLDY    81  70  69 CALM      29.89S
PITTSBURGH     MOCLDY    72  65  78 NW5       29.98S
ROANOKE        CLEAR     77  66  68 N3        30.01R
RICHMOND       PTCLDY    79  70  74 CALM      29.91R
RALEIGH        PTCLDY    71  68  90 CALM      29.93S

$$

ANZ530>537-040400-
MARINE OBSERVATIONS

STATION/POSITION TIME  TEMP    WIND        PRES
                       AIR SEA DIR/SP/G
                 (UTC) (F)     (DEG/KT/KT) (MB)
THOMAS PT LIGHT  NOT AVBL
BALT KEY BRIDGE  0200   83     240/  3/  4 1012.0R
COVE POINT       0200   81     310/  3/  4 1012.7R
LEWISETTA        0200   81 83  260/  1/  1 1011.8R
SOLOMONS ISLAND  0200      82                N/A
PINEY POINT      0205          270/  1/  2   N/A

$$



USA.gov is the U.S. government's official web portal to all federal, state and local government web resources and services.